FW2101 Weather Reports


Display with metric or nautical units.
time (UTC)temp
F
wind
direction
speed
MPH
gust
MPH
rain 1hr
in
rain 24hr
in
rain mn
in
humidity
%
barometer
mb
20260504233113 73 296 1.0 2.0 0.00 0.02 0.00 36 1001.7
20260504232612 73 187 1.0 3.0 0.00 0.02 0.00 35 1001.7
20260504232113 73 253 1.0 3.0 0.00 0.02 0.00 35 1001.6
20260504231611 74 281 1.0 3.0 0.00 0.02 0.00 35 1001.6
20260504231111 74 283 2.0 6.0 0.00 0.02 0.00 34 1001.5
20260504230611 74 280 3.0 6.0 0.00 0.02 0.00 33 1001.4
20260504230111 75 315 3.0 6.0 0.00 0.02 0.00 33 1001.3
20260504225612 75 293 2.0 6.0 0.00 0.02 0.00 33 1001.3
20260504225111 75 310 2.0 6.0 0.00 0.02 0.00 33 1001.2
20260504224612 75 309 3.0 8.0 0.00 0.02 0.00 33 1001.3
20260504224112 75 243 4.0 9.0 0.00 0.02 0.00 33 1001.2
20260504223611 74 280 5.0 9.0 0.00 0.02 0.00 32 1001.3
20260504223113 74 280 5.0 12.0 0.00 0.02 0.00 31 1001.3
20260504223107 74 254 6.0 15.0 0.00 0.02 0.00 32 1001.3
20260504222112 74 288 6.0 15.0 0.00 0.02 0.00 32 1001.3
20260504221611 75 309 5.0 12.0 0.00 0.02 0.00 33 1001.3
20260504221112 75 278 4.0 12.0 0.00 0.02 0.00 32 1001.3
20260504220610 75 284 5.0 12.0 0.00 0.02 0.00 33 1001.5
20260504220108 75 273 5.0 12.0 0.00 0.02 0.00 33 1001.5
20260504215608 75 247 4.0 10.0 0.00 0.02 0.00 33 1001.6
20260504215108 75 272 5.0 11.0 0.00 0.02 0.00 33 1001.6
20260504214607 75 241 6.0 13.0 0.00 0.02 0.00 34 1001.7
20260504214107 75 281 5.0 13.0 0.00 0.02 0.00 33 1001.6
20260504213607 74 321 4.0 10.0 0.00 0.02 0.00 34 1001.6
20260504213106 74 278 5.0 10.0 0.00 0.02 0.00 33 1001.7
20260504212832 74 290 6.0 13.0 0.00 0.02 0.00 34 1001.8
20260504212107 74 292 7.0 14.0 0.00 0.02 0.00 34 1001.7
20260504211607 74 344 7.0 14.0 0.00 0.02 0.00 34 1001.8
20260504211335 74 273 8.0 15.0 0.00 0.02 0.00 35 1001.8
20260504210832 74 280 7.0 15.0 0.00 0.02 0.00 34 1001.8
20260504210329 74 295 6.0 13.0 0.00 0.02 0.00 35 1001.7
20260504205603 73 325 8.0 16.0 0.00 0.02 0.00 36 1001.8
20260504205104 73 302 7.0 16.0 0.00 0.02 0.00 35 1001.8
20260504204601 73 328 6.0 14.0 0.00 0.02 0.00 36 1002.0
20260504204546 73 294 7.0 16.0 0.00 0.02 0.00 36 1002.1
20260504203602 73 301 7.0 16.0 0.00 0.02 0.00 37 1002.1
20260504203102 73 244 7.0 14.0 0.00 0.02 0.00 38 1002.2
20260504202602 73 266 6.0 14.0 0.00 0.02 0.00 39 1002.2
20260504202102 73 253 6.0 14.0 0.00 0.02 0.00 39 1002.3
20260504201601 73 308 6.0 13.0 0.00 0.02 0.00 38 1002.2
20260504201101 73 292 7.0 13.0 0.00 0.02 0.00 39 1002.3
20260504200601 73 213 7.0 17.0 0.00 0.02 0.00 39 1002.4
20260504200101 73 283 7.0 17.0 0.00 0.02 0.00 38 1002.5
20260504195559 73 312 7.0 14.0 0.00 0.02 0.00 37 1002.5
20260504195059 73 271 7.0 14.0 0.00 0.02 0.00 39 1002.6
20260504194555 73 269 8.0 17.0 0.00 0.02 0.00 39 1002.6
20260504194055 73 303 8.0 17.0 0.00 0.02 0.00 40 1002.8
20260504193555 73 278 7.0 13.0 0.00 0.02 0.00 41 1002.8
20260504193318 72 9 7.0 17.0 0.00 0.02 0.00 41 1002.9
20260504192556 72 262 10.0 21.0 0.00 0.02 0.00 40 1002.9
20260504192058 72 286 9.0 21.0 0.00 0.02 0.00 41 1002.9
20260504191557 72 328 7.0 17.0 0.00 0.02 0.00 41 1003.0
20260504191325 72 304 8.0 17.0 0.00 0.02 0.00 42 1003.0
20260504190557 72 234 7.0 17.0 0.00 0.02 0.00 43 1003.1
20260504190057 71 284 6.0 13.0 0.00 0.02 0.00 44 1003.3
20260504185554 71 300 7.0 14.0 0.00 0.02 0.00 43 1003.4
20260504185053 71 282 8.0 16.0 0.00 0.02 0.00 43 1003.3
20260504184552 71 277 9.0 16.0 0.00 0.02 0.00 44 1003.4
20260504184051 71 300 8.0 16.0 0.00 0.02 0.00 44 1003.5
20260504183815 71 270 7.0 16.0 0.00 0.02 0.00 46 1003.7
20260504183052 71 326 7.0 13.0 0.00 0.02 0.00 45 1003.7
20260504182552 70 293 7.0 16.0 0.00 0.02 0.00 45 1003.7
20260504182051 70 286 10.0 19.0 0.00 0.02 0.00 44 1003.8
20260504181552 70 302 10.0 22.0 0.00 0.02 0.00 45 1003.7
20260504181052 69 301 9.0 22.0 0.00 0.02 0.00 45 1003.7
20260504180814 70 236 9.0 19.0 0.00 0.02 0.00 45 1003.8
20260504180053 69 308 9.0 17.0 0.00 0.02 0.00 45 1003.8
20260504175552 69 281 9.0 17.0 0.00 0.02 0.00 46 1004.1
20260504175048 69 247 9.0 17.0 0.00 0.02 0.00 47 1003.9
20260504174549 69 344 11.0 17.0 0.00 0.02 0.00 46 1004.0
20260504174050 69 295 10.0 17.0 0.00 0.02 0.00 47 1004.1
20260504173550 69 265 9.0 19.0 0.00 0.02 0.00 46 1004.0
20260504173050 68 267 9.0 19.0 0.00 0.02 0.00 47 1004.0
20260504172551 68 294 9.0 22.0 0.00 0.02 0.00 47 1004.0
20260504172533 68 294 9.0 22.0 0.00 0.02 0.00 47 1004.0
20260504171550 68 300 7.0 17.0 0.00 0.02 0.00 47 1003.9
20260504171050 68 319 9.0 17.0 0.00 0.02 0.00 48 1004.1
20260504170550 68 270 8.0 17.0 0.00 0.02 0.00 48 1004.1
20260504151046 62 290 8.0 13.0 0.00 0.02 0.00 53 1005.2
20260504150546 63 315 7.0 14.0 0.00 0.02 0.00 52 1005.2
20260504150304 62 244 6.0 14.0 0.00 0.02 0.00 53 1005.2
20260504141045 61 251 6.0 12.0 0.00 0.02 0.00 52 1005.2
20260504140543 60 267 6.0 12.0 0.00 0.02 0.00 54 1005.3
20260504130803 57 262 7.0 15.0 0.00 0.02 0.00 54 1005.9
20260504110538 53 246 3.0 6.0 0.00 0.02 0.00 57 1006.0
20260504100532 53 263 4.0 9.0 0.00 0.02 0.00 54 1005.8
20260504081526 53 258 5.0 10.0 0.00 0.02 0.00 55 1006.3
20260504081026 53 238 5.0 11.0 0.00 0.02 0.00 55 1006.4
20260504080527 53 228 4.0 11.0 0.00 0.02 0.00 55 1006.4
20260504050512 55 273 3.0 7.0 0.00 0.02 0.00 54 1007.6
20260504050012 55 288 4.0 10.0 0.00 0.02 0.00 53 1007.6
20260504045512 55 260 4.0 10.0 0.00 0.02 0.00 52 1007.6
20260504045010 55 231 4.0 13.0 0.00 0.02 0.00 52 1007.6
20260504044510 55 295 4.0 13.0 0.00 0.02 0.00 52 1007.6
20260504044011 56 273 4.0 12.0 0.00 0.02 0.00 52 1007.6
20260504043512 56 243 5.0 11.0 0.00 0.02 0.00 52 1007.5
20260504043012 55 275 5.0 11.0 0.00 0.02 0.00 52 1007.5
20260504042732 55 286 4.0 10.0 0.00 0.02 0.00 52 1007.6
20260504042458 55 256 5.0 11.0 0.00 0.02 0.00 52 1007.5
20260504041508 55 312 5.0 11.0 0.00 0.02 0.00 53 1007.6
20260504041010 55 301 4.0 9.0 0.00 0.02 0.00 53 1007.6
20260504040505 55 231 3.0 9.0 0.00 0.02 0.00 54 1007.6
20260504040225 55 251 3.0 7.0 0.00 0.02 0.00 54 1007.6
20260504035507 55 236 4.0 9.0 0.00 0.02 0.02 54 1007.6
20260504035006 55 313 4.0 9.0 0.00 0.02 0.02 53 1007.5
20260504034506 56 241 3.0 9.0 0.00 0.02 0.02 53 1007.5
20260504034006 56 293 4.0 9.0 0.00 0.02 0.02 53 1007.5
20260504033506 56 280 4.0 11.0 0.00 0.02 0.02 53 1007.5
20260504033006 56 230 4.0 11.0 0.00 0.02 0.02 53 1007.5
20260504032506 56 283 5.0 13.0 0.00 0.02 0.02 52 1007.5
20260504032230 56 254 5.0 13.0 0.00 0.02 0.02 52 1007.5
20260504031503 56 311 6.0 13.0 0.00 0.02 0.02 52 1007.6
20260504031226 56 286 6.0 13.0 0.00 0.02 0.02 52 1007.5
20260504030500 56 348 5.0 11.0 0.00 0.02 0.02 52 1007.6
20260504030003 56 297 5.0 10.0 0.00 0.02 0.02 53 1007.7
20260504025501 56 257 6.0 11.0 0.00 0.02 0.02 52 1007.7
20260504025001 56 335 6.0 13.0 0.00 0.02 0.02 52 1007.8
20260504024502 55 257 6.0 13.0 0.00 0.02 0.02 53 1007.7
20260504024002 55 290 4.0 11.0 0.00 0.02 0.02 52 1007.9
20260504023503 55 213 3.0 9.0 0.00 0.02 0.02 53 1008.0
20260504023001 55 300 3.0 8.0 0.00 0.02 0.02 54 1008.1
20260504022502 55 263 3.0 8.0 0.00 0.02 0.02 54 1008.1
20260504022002 55 283 3.0 6.0 0.00 0.02 0.02 55 1008.1
20260504021501 55 272 3.0 8.0 0.00 0.02 0.02 54 1008.1
20260504020958 55 278 3.0 8.0 0.00 0.02 0.02 55 1008.0
20260504020723 55 231 3.0 7.0 0.00 0.02 0.02 55 1008.0
20260504015959 55 306 3.0 9.0 0.00 0.02 0.02 56 1007.9
20260504015458 55 239 4.0 9.0 0.00 0.02 0.02 55 1008.0
20260504014958 55 281 5.0 11.0 0.00 0.02 0.02 56 1008.1
20260504014459 55 295 5.0 11.0 0.00 0.02 0.02 55 1008.1
20260504014000 54 338 5.0 9.0 0.00 0.02 0.02 57 1008.1
20260504013500 54 299 5.0 9.0 0.00 0.02 0.02 57 1008.3
20260504013224 54 294 5.0 9.0 0.00 0.02 0.02 57 1008.5
20260504012459 54 279 5.0 9.0 0.00 0.02 0.02 58 1008.5
20260504012001 54 341 4.0 10.0 0.00 0.02 0.02 58 1008.5
20260504011457 54 303 5.0 10.0 0.00 0.02 0.02 58 1008.3
20260504010958 54 7 4.0 10.0 0.00 0.02 0.02 59 1008.4
20260504010456 54 313 5.0 11.0 0.00 0.02 0.02 60 1008.5
20260504005956 54 314 7.0 18.0 0.00 0.02 0.02 59 1008.5
20260504005456 54 339 8.0 18.0 0.00 0.02 0.02 58 1008.7
20260504004954 54 301 7.0 15.0 0.00 0.02 0.02 58 1008.7
20260504004455 54 316 7.0 15.0 0.00 0.02 0.02 58 1008.6
20260504003954 55 317 7.0 13.0 0.00 0.02 0.02 56 1008.5